TimeEDT,TemperatureF,Dew PointF,Humidity,Sea Level PressureIn,VisibilityMPH,Wind Direction,Wind SpeedMPH,Gust SpeedMPH,PrecipitationIn,Events,Conditions,WindDirDegrees,DateUTC
12:14 AM,48.2,41.0,76,29.89,10.0,WNW,6.9,-,N/A,,Overcast,290,2012-10-16 04:14:00
12:53 AM,46.0,42.1,86,29.91,10.0,NW,3.5,-,0.01,Rain,Light Rain,320,2012-10-16 04:53:00
1:10 AM,46.4,42.8,87,29.90,10.0,West,3.5,-,0.00,,Overcast,270,2012-10-16 05:10:00
1:26 AM,46.4,42.8,87,29.90,10.0,Calm,Calm,-,0.00,,Overcast,0,2012-10-16 05:26:00
1:43 AM,46.4,42.8,87,29.90,10.0,Calm,Calm,-,0.00,,Overcast,0,2012-10-16 05:43:00
1:53 AM,46.0,43.0,89,29.91,10.0,Calm,Calm,-,0.00,,Overcast,0,2012-10-16 05:53:00
2:53 AM,46.0,42.1,86,29.92,10.0,WNW,4.6,-,N/A,,Overcast,290,2012-10-16 06:53:00
3:27 AM,46.4,41.0,81,29.92,10.0,WNW,4.6,-,N/A,,Overcast,290,2012-10-16 07:27:00
3:38 AM,46.4,39.2,76,29.92,10.0,WNW,5.8,-,N/A,,Overcast,300,2012-10-16 07:38:00
3:53 AM,46.9,39.0,74,29.92,10.0,WNW,3.5,-,N/A,,Overcast,300,2012-10-16 07:53:00
4:53 AM,46.9,37.9,71,29.92,10.0,NW,3.5,-,N/A,,Overcast,320,2012-10-16 08:53:00
5:53 AM,46.0,37.9,73,29.93,10.0,WNW,3.5,-,N/A,,Overcast,290,2012-10-16 09:53:00
6:53 AM,46.0,37.9,73,29.94,10.0,WNW,4.6,-,N/A,,Overcast,290,2012-10-16 10:53:00
8:53 AM,46.9,36.0,66,29.98,10.0,West,4.6,-,N/A,,Overcast,270,2012-10-16 12:53:00
9:53 AM,48.0,36.0,63,29.99,10.0,West,6.9,-,N/A,,Overcast,280,2012-10-16 13:53:00
10:53 AM,48.9,36.0,61,29.99,10.0,Variable,4.6,-,N/A,,Overcast,0,2012-10-16 14:53:00
11:53 AM,50.0,35.1,57,29.99,10.0,WNW,9.2,-,N/A,,Overcast,290,2012-10-16 15:53:00
12:53 PM,50.0,36.0,59,29.98,10.0,WSW,4.6,-,N/A,,Overcast,240,2012-10-16 16:53:00
1:53 PM,53.1,37.0,55,29.96,10.0,WNW,8.1,-,N/A,,Mostly Cloudy,290,2012-10-16 17:53:00
2:53 PM,54.0,37.0,53,29.94,10.0,WNW,5.8,-,N/A,,Partly Cloudy,290,2012-10-16 18:53:00
3:53 PM,54.0,37.0,53,29.91,10.0,West,5.8,-,N/A,,Clear,280,2012-10-16 19:53:00
4:53 PM,55.9,36.0,47,29.89,10.0,South,9.2,-,N/A,,Clear,190,2012-10-16 20:53:00
5:53 PM,55.0,36.0,49,29.88,10.0,SW,6.9,-,N/A,,Clear,220,2012-10-16 21:53:00
6:53 PM,48.0,39.0,71,29.89,10.0,NNE,3.5,-,N/A,,Clear,30,2012-10-16 22:53:00
7:53 PM,42.1,37.9,85,29.89,10.0,Calm,Calm,-,N/A,,Clear,0,2012-10-16 23:53:00
8:53 PM,42.1,39.0,89,29.88,10.0,ESE,3.5,-,N/A,,Clear,110,2012-10-17 00:53:00
9:53 PM,43.0,37.0,80,29.87,10.0,SSE,4.6,-,N/A,,Clear,150,2012-10-17 01:53:00
10:53 PM,45.0,37.0,74,29.88,10.0,SSE,5.8,-,N/A,,Clear,150,2012-10-17 02:53:00
11:53 PM,43.0,37.0,80,29.89,10.0,SSE,4.6,-,N/A,,Clear,160,2012-10-17 03:53:00